Location: Biltmore Gardens
(41.6070°N, 83.4666°W)
Time: 14:12:53
(UTC+00:00)

COSMOS 2406 - Pass Details

Date: 14 July 2020
Orbit: 844 x 863 km, 71.0° (Epoch: 04 August)

Event Time Altitude Azimuth Distance (km) Brightness Sun altitude
Exits shadow 07:37:51 37° 241° (WSW) 1,307 3.7 -21.1°
Maximum altitude 07:39:51 55° 298° (WNW) 1,028 3.6 -21.0°
Drops below altitude 10° 07:45:31 10° 16° (NNE) 2,508 6.8 -20.4°
Sets 07:48:02 0° 21° (NNE) 3,447 7.9 -20.2°
